Temp
19 18 17 17 17 16 16 15 15 15 15 15 15 15 15 15 15 15 15 15 15 15 15 15 15 15 15 14 14 15 15 15 16 16 16 16 16 15 15 15 15 15 15 15 15 15 16 16 16 16 16 16 16 16 17 17 18 18 18 18 18 19 19
19 18 18 17 16 16 16 16 16 15 15 15 15 15 15 15 15 14 14 15 15 15 15 15 14 14 14 14 14 14 14 14 14 15 16 16 16 15 15 15 15 16 16 15 15 16 16 16 16 16 15 15 15 16 16 16 16 16 17 17 17 18 18
18 18 18 17 17 16 16 16 16 16 15 15 15 15 15 15 15 14 14 14 14 15 15 14 14 14 13 13 13 13 13 14 14 14 14 15 15 15 15 16 16 16 17 17 16 16 17 17 17 17 16 16 15 15 16 15 15 15 16 16 16 17 17
18 18 18 17 17 17 16 16 16 16 16 15 15 15 15 15 14 14 14 14 14 14 14 14 14 14 13 13 13 13 13 13 13 13 13 13 14 14 14 15 15 15 16 17 16 16 16 17 17 18 18 18 17 17 16 16 16 15 15 16 16 16 17
18 18 18 17 17 17 17 17 17 16 16 15 15 15 14 14 14 14 14 14 14 14 14 14 14 14 13 13 13 13 13 13 13 13 13 13 13 13 13 14 14 14 14 15 15 15 15 16 16 17 18 18 18 18 18 17 16 16 17 17 17 17 17
18 18 18 18 17 17 17 17 17 17 16 16 15 15 15 14 14 14 14 14 14 14 13 13 13 13 13 13 13 13 13 12 12 12 12 12 12 13 13 13 14 14 14 13 13 13 14 15 15 16 17 18 18 18 18 18 18 18 18 18 18 19 19
18 18 18 18 18 18 18 17 17 17 17 16 16 15 15 14 14 14 14 14 14 13 13 13 13 13 13 14 13 13 13 12 12 12 12 12 12 12 12 13 13 13 13 13 13 13 13 14 14 15 16 16 16 17 18 18 19 19 19 19 19 19 20
18 18 18 18 18 18 18 17 17 17 17 17 16 16 15 14 14 14 14 14 13 13 13 13 13 13 13 13 13 13 12 12 12 12 12 11 11 11 12 12 13 13 13 13 13 13 13 13 13 13 14 15 16 17 18 19 19 19 19 19 19 19 20
18 18 18 18 18 18 18 17 17 17 17 17 16 16 15 14 14 14 14 14 13 13 13 13 13 13 13 13 13 12 12 12 12 12 12 11 11 11 11 11 12 12 12 12 12 13 13 13 13 12 13 14 15 16 17 18 19 19 19 19 19 19 19
17 18 18 18 17 17 17 17 17 17 17 17 16 15 15 15 14 14 14 14 13 13 13 13 13 13 13 13 13 13 12 12 12 12 12 12 11 11 11 11 12 12 11 11 12 12 12 12 13 13 13 13 14 14 15 16 18 19 19 18 18 19 19
17 17 17 17 17 17 17 17 17 17 17 16 16 15 15 15 14 14 14 14 13 13 13 13 13 13 13 13 13 13 12 12 12 12 12 12 11 11 11 11 12 12 11 11 11 11 11 11 12 13 13 13 13 13 14 14 15 17 17 17 17 18 18
17 17 17 17 17 17 17 17 17 17 16 16 16 15 15 15 14 14 14 14 13 13 13 13 13 13 13 13 13 13 12 12 12 12 12 11 11 11 11 11 11 12 11 11 11 11 11 11 11 12 13 13 13 13 13 13 14 15 16 16 16 16 16
16 17 17 17 17 17 17 17 17 17 16 16 16 15 15 15 15 14 14 14 14 13 13 13 13 13 13 13 13 13 12 12 12 12 12 11 11 11 11 11 11 11 11 11 12 12 11 11 11 12 12 13 13 12 13 13 14 14 15 15 14 15 15
16 16 17 16 17 17 17 17 17 16 16 16 16 16 15 15 15 15 14 14 14 14 13 13 13 13 13 13 13 13 12 12 12 12 12 11 11 11 11 11 11 11 11 11 11 12 12 12 11 11 12 12 12 12 12 13 14 14 14 14 14 14 14
16 16 16 16 16 17 17 17 16 16 16 16 16 16 16 16 15 15 15 15 14 14 14 13 13 13 13 13 12 12 12 12 12 12 12 12 11 11 11 11 11 11 11 11 11 11 12 12 12 12 12 12 12 12 12 12 13 14 14 13 13 13 13
16 16 16 16 16 16 16 16 16 16 16 16 16 16 16 16 15 15 15 15 15 14 14 14 13 13 13 13 12 12 12 12 12 12 12 12 12 11 11 11 11 11 10 10 10 11 11 11 11 12 12 12 12 12 12 12 12 12 13 13 13 13 13
16 16 16 16 16 16 16 16 16 16 16 16 16 16 16 16 15 15 15 15 15 14 14 14 13 13 13 13 12 12 12 12 12 11 11 11 11 11 11 11 11 11 10 10 10 11 11 11 11 11 12 12 12 12 11 11 11 11 12 12 12 12 13
15 15 15 15 15 16 16 16 16 15 15 15 15 15 15 15 15 15 15 15 15 14 14 14 13 13 13 12 12 12 12 12 11 11 11 11 11 10 10 10 10 10 10 10 10 11 11 11 11 11 11 11 12 12 12 11 11 11 11 12 12 12 12
15 15 15 15 15 15 15 16 16 15 15 15 15 15 15 15 15 15 15 15 15 14 14 14 13 13 13 12 12 12 11 11 11 11 11 10 10 10 10 10 10 10 10 10 10 10 10 10 10 10 10 11 11 11 11 11 11 11 11 12 12 12 12
15 15 15 15 15 15 16 16 16 16 15 15 15 14 14 14 14 14 15 15 15 14 14 14 13 13 13 12 12 11 11 11 11 10 10 10 10 10 9 9 9 9 9 9 9 9 9 9 9 9 10 10 10 10 10 11 11 11 11 12 12 12 12
15 15 15 15 15 15 15 15 15 15 15 15 15 14 14 14 14 14 14 14 14 14 14 14 13 13 12 12 12 11 11 11 10 10 10 10 9 9 9 9 9 9 9 9 9 9 9 9 9 9 9 9 10 10 10 10 11 11 11 11 12 12 12
15 15 15 15 15 15 15 15 15 15 14 14 14 14 14 14 13 13 14 14 14 13 13 13 13 12 12 12 12 11 11 10 10 10 10 9 9 9 9 9 9 9 8 8 8 8 8 8 8 8 8 9 9 9 10 10 10 11 11 11 12 12 12
15 15 15 15 15 15 15 15 14 14 14 14 14 14 14 14 14 13 13 13 13 12 12 12 12 11 11 11 11 11 10 10 10 10 9 9 9 9 9 9 9 8 7 7 7 7 7 7 7 7 7 7 8 8 9 9 10 10 11 11 12 12 12
15 15 15 15 15 15 15 15 14 14 14 14 14 13 13 14 14 13 13 13 12 11 11 11 11 11 11 11 10 10 10 9 9 9 9 9 9 9 9 9 9 8 8 7 7 7 7 6 6 6 6 6 6 6 7 7 8 9 10 10 11 11 11
15 15 15 15 15 15 15 15 14 14 14 14 14 13 13 13 14 13 13 13 12 11 10 10 10 10 10 10 9 9 9 9 9 9 9 9 9 9 9 8 8 8 8 7 7 7 6 6 6 5 5 5 5 5 5 5 6 7 8 9 10 10 11
15 15 15 15 15 15 15 15 15 14 14 14 14 13 13 13 13 13 13 12 11 11 10 10 10 10 9 9 9 9 9 8 8 8 8 8 8 8 8 8 8 8 7 7 6 6 7 7 6 6 5 5 5 4 4 4 4 5 5 6 7 8 9
14 14 14 14 14 14 14 14 14 14 14 14 14 13 13 13 13 13 12 12 11 10 9 10 9 9 9 8 8 8 8 7 7 8 8 7 7 7 7 7 7 7 7 7 7 7 7 7 6 6 6 6 5 5 5 5 5 5 4 4 5 6 7
14 14 14 14 14 14 14 14 14 14 14 14 14 13 13 13 13 12 12 11 10 9 9 9 9 8 8 8 8 8 7 7 7 7 7 7 7 7 7 7 7 7 7 7 6 6 6 5 5 5 5 5 5 6 6 6 6 5 5 5 5 5 6
13 13 13 13 13 13 13 13 13 14 14 14 14 14 13 13 12 11 11 10 10 9 8 8 8 8 8 7 7 7 7 7 7 7 7 7 7 7 7 6 6 6 6 6 6 5 4 4 4 4 4 5 5 5 5 5 5 5 5 5 5 5 5
13 13 13 13 13 13 13 13 13 13 13 14 14 13 13 13 12 11 10 9 9 8 7 7 7 7 7 6 7 7 8 8 8 8 7 7 7 7 6 6 6 6 5 5 5 4 3 3 3 3 4 4 5 5 5 5 5 5 4 4 4 4 4
12 13 13 13 13 13 13 13 13 13 13 13 13 13 12 12 10 9 9 9 8 8 6 6 6 6 6 6 6 7 8 8 8 8 8 7 7 7 6 6 5 4 4 5 4 3 2 2 2 3 3 4 4 4 5 5 5 5 4 4 3 3 3
12 12 12 12 12 12 12 12 12 13 13 13 13 12 12 11 9 8 8 8 8 7 6 5 6 6 6 6 6 6 7 8 8 8 8 7 7 7 6 6 5 4 4 4 3 2 2 1 1 2 2 3 3 3 4 4 4 4 4 4 4 3 3
12 12 12 12 12 12 12 12 12 12 12 12 12 11 10 9 8 7 7 7 7 7 6 5 5 6 6 5 5 5 6 6 7 7 7 7 7 7 6 6 6 5 4 3 3 2 2 1 1 1 1 1 2 2 3 3 3 3 2 2 3 3 3
12 11 11 11 12 12 12 12 11 11 10 10 10 9 8 8 7 6 6 6 6 6 6 6 6 5 5 5 5 5 5 5 6 6 6 6 6 6 6 6 6 6 4 3 2 2 1 1 0 0 0 1 1 1 1 1 1 1 1 1 1 1 2
11 11 11 11 11 11 11 11 10 9 9 8 8 7 7 6 6 5 5 6 6 6 6 5 5 5 5 4 4 4 4 4 4 4 5 5 6 6 6 6 5 5 4 3 2 1 1 0 -0 -1 -1 -1 -1 -1 -1 -1 -1 -0 -0 0 0 1 1
10 10 10 10 10 10 10 10 9 8 7 7 6 6 6 5 5 5 5 5 6 5 5 5 5 5 4 4 4 4 4 4 4 3 3 4 5 5 5 5 4 4 3 2 1 1 0 -1 -1 -1 -1 -1 -1 -2 -2 -1 -1 -1 -1 -0 0 1 1
10 10 10 10 10 10 9 8 7 6 6 6 6 5 5 5 5 5 5 5 6 5 5 5 5 5 4 4 4 4 4 4 3 3 2 3 3 4 4 3 3 2 1 0 -0 -0 -1 -1 -1 -1 -1 -1 -1 -2 -2 -1 -1 -1 -1 -0 0 1 1
Height
816 818 820 821 822 823 824 825 825 826 826 826 826 826 826 826 826 827 827 827 827 827 827 827 827 827 827 827 827 827 827 826 826 826 826 826 826 827 828 828 827 828 828 828 828 829 830 830 829 829 830 829 830 829 828 828 828 829 829 829 829 829 829
816 818 819 821 822 823 824 825 825 826 826 826 827 827 827 827 827 827 828 828 828 828 828 828 828 827 827 827 827 828 828 828 828 828 828 828 828 828 828 828 828 828 828 828 828 828 829 830 830 829 830 830 829 828 828 828 828 828 828 828 827 828 828
816 817 819 820 821 823 823 824 825 826 826 827 827 827 828 828 828 828 828 828 828 828 828 828 828 828 828 828 828 828 829 829 829 829 829 829 830 830 829 829 829 828 827 827 828 828 828 828 828 828 828 828 829 828 827 827 827 828 827 827 826 826 827
815 816 818 819 820 822 823 824 825 825 826 827 827 828 828 829 829 829 829 829 829 829 829 829 829 829 829 829 829 829 829 829 830 830 830 830 831 831 830 830 830 830 829 828 829 830 829 828 827 826 826 826 826 826 826 826 826 826 826 825 824 824 824
814 815 817 818 819 821 822 823 824 825 826 827 827 828 828 829 829 829 830 830 830 830 830 830 830 830 830 830 830 830 830 830 830 830 831 831 831 831 831 831 831 831 831 831 831 831 831 829 829 827 825 825 824 823 824 824 824 824 823 823 822 821 821
813 814 816 817 818 820 821 822 823 824 825 826 827 827 828 829 829 830 830 830 830 831 831 831 831 831 831 831 831 831 831 831 831 831 831 831 831 831 831 831 831 832 832 832 832 832 832 831 830 828 826 825 824 823 822 822 822 821 821 821 820 820 820
812 813 814 816 817 818 820 821 822 823 824 825 826 827 827 828 829 829 830 830 830 831 831 831 831 831 831 831 831 831 831 832 832 832 832 832 832 832 832 832 832 832 832 832 833 832 832 832 831 829 828 826 825 823 822 820 819 819 818 818 819 819 819
810 812 813 815 816 817 818 820 821 822 823 824 825 826 827 828 828 829 829 830 830 830 831 831 831 831 831 832 832 832 832 832 832 832 832 832 832 832 832 832 832 832 832 832 832 832 832 832 831 831 829 828 825 822 820 818 818 817 817 817 817 817 817
809 811 812 813 814 816 817 818 819 821 822 823 824 825 826 827 828 828 829 829 830 830 830 831 831 831 831 832 832 832 832 832 832 832 832 832 833 833 832 833 832 833 832 832 832 832 831 831 831 831 830 829 827 823 820 818 817 816 816 817 816 816 816
807 809 810 811 812 814 815 817 818 819 820 822 823 824 825 826 827 828 828 829 829 830 830 830 831 831 831 831 832 832 832 832 832 832 832 832 833 833 833 833 832 833 832 832 832 831 831 831 830 830 829 829 828 826 823 820 817 816 816 817 816 816 816
805 807 808 810 811 812 813 815 816 818 819 820 821 822 823 825 826 827 828 828 828 829 829 830 830 830 831 831 831 832 832 832 832 832 832 832 832 832 832 832 832 832 832 832 831 831 830 830 829 829 828 828 828 827 826 823 820 818 818 817 817 816 815
804 805 806 807 808 809 811 812 814 815 816 818 819 820 821 823 824 825 826 827 827 828 828 829 829 830 830 831 831 831 831 832 832 832 832 832 832 832 832 832 832 832 832 831 831 831 830 830 829 829 828 827 827 827 826 825 822 819 818 818 817 816 816
802 803 804 805 806 807 809 810 811 813 814 815 817 818 819 821 822 823 824 825 826 826 827 828 828 829 829 830 830 830 831 831 831 832 832 832 832 832 832 832 832 832 832 831 831 830 830 830 829 828 828 827 826 826 825 824 821 819 818 818 817 816 815
800 801 802 803 804 805 807 808 809 810 811 813 814 816 817 819 820 821 823 824 825 825 826 826 827 827 828 828 829 829 829 830 830 831 831 831 832 832 832 832 832 832 831 831 831 830 829 829 829 828 827 827 826 825 824 823 820 817 817 817 816 815 814
798 799 800 801 802 803 804 805 806 808 809 810 811 813 815 817 818 820 821 822 823 824 825 825 826 826 826 827 827 827 828 829 829 830 830 830 830 831 831 831 831 831 831 831 830 830 829 828 828 827 826 826 825 824 824 822 820 817 815 815 814 813 813
796 797 798 799 800 802 803 803 804 805 807 808 809 811 812 814 816 817 819 820 821 822 823 823 824 824 825 825 825 826 826 827 828 828 828 829 829 829 829 830 830 830 830 830 829 829 828 828 827 826 825 825 824 823 823 822 820 818 816 814 813 812 811
795 795 796 797 798 799 800 801 802 803 804 806 807 808 810 811 813 814 815 817 818 819 820 821 822 823 823 824 824 825 825 826 826 827 827 828 828 828 828 828 828 828 828 828 828 828 827 827 826 825 824 824 823 822 821 820 819 818 816 813 812 811 810
794 793 794 795 796 797 798 799 800 800 801 803 804 806 807 809 810 811 812 813 814 816 817 818 819 820 821 822 823 824 824 824 825 825 826 826 827 827 827 827 826 826 826 826 826 826 826 826 825 824 823 822 821 820 819 819 818 816 815 812 811 810 809
792 791 792 794 794 794 795 796 797 798 799 800 801 802 803 805 807 808 809 810 811 812 813 815 816 817 819 820 821 822 822 823 823 824 824 825 825 825 826 825 825 825 825 824 824 824 824 824 823 823 822 821 820 819 818 817 816 815 813 811 809 808 807
790 789 790 791 791 791 792 793 794 795 796 797 798 799 799 801 802 803 805 806 808 809 811 813 814 816 817 818 819 819 820 821 822 822 822 823 823 824 824 824 824 824 824 823 823 822 822 822 821 821 820 820 819 818 817 816 814 813 811 809 807 805 804
789 789 789 789 789 789 790 791 791 793 794 795 796 796 796 797 798 799 801 802 804 806 808 810 813 814 815 816 817 817 818 819 820 820 821 821 821 822 822 822 822 822 822 822 821 821 820 820 819 819 818 818 817 816 815 814 812 811 809 806 804 803 801
788 788 787 786 786 787 787 788 789 791 792 792 793 793 793 794 794 795 797 800 801 802 802 804 806 809 811 814 815 815 816 817 818 818 819 819 819 820 820 820 820 820 820 819 819 819 818 817 817 816 816 816 815 814 813 812 810 808 806 804 802 800 799
786 785 785 784 785 785 785 786 787 788 789 790 790 791 791 792 792 793 794 797 799 799 799 800 801 804 808 812 813 814 814 815 816 817 817 818 818 818 818 818 818 818 817 816 816 815 814 814 813 813 813 813 813 812 811 810 808 806 804 802 800 798 796
784 784 783 783 783 783 783 784 784 785 786 787 788 788 788 789 791 791 792 794 796 797 798 798 799 802 806 809 811 812 812 813 814 815 816 816 816 816 816 816 816 816 815 814 813 812 811 811 810 809 809 809 809 809 809 808 806 805 803 800 798 797 794
782 782 781 781 781 781 782 782 782 782 783 784 784 785 786 787 788 789 790 792 793 794 795 796 798 800 803 806 808 810 811 812 812 813 814 814 815 815 815 814 814 814 813 812 811 810 809 808 806 806 806 805 805 805 805 805 804 803 802 800 797 795 793
780 780 780 780 780 780 780 780 780 780 780 781 782 782 783 784 785 786 787 789 790 791 792 794 796 799 801 803 806 808 810 810 811 812 813 813 813 813 813 813 812 811 811 810 809 808 807 806 804 803 802 802 801 800 800 801 801 801 800 798 796 793 792
779 778 778 778 778 777 777 777 777 778 778 778 779 779 781 782 782 783 785 786 788 788 789 792 794 797 799 802 804 806 808 809 809 810 811 811 812 811 811 811 810 809 809 808 807 806 805 804 803 801 800 799 798 797 796 796 796 796 796 795 793 791 790
778 777 776 776 776 775 775 775 775 775 775 776 776 777 778 779 780 781 782 784 786 786 788 790 793 795 798 800 803 805 806 807 808 809 809 809 809 809 808 808 807 807 806 805 804 803 802 802 800 799 798 797 795 794 793 792 792 792 791 790 789 788 788
776 775 775 774 773 773 773 773 773 773 773 773 774 774 775 776 777 779 780 781 783 784 787 790 792 794 797 799 801 804 805 806 806 806 806 806 806 806 805 805 805 804 803 803 802 800 799 799 798 797 795 793 792 791 789 789 788 788 787 786 784 783 783
773 773 773 772 771 771 771 770 770 771 770 770 771 772 773 774 775 777 778 778 779 782 786 789 791 794 796 798 801 803 804 804 804 804 804 804 804 803 803 802 802 801 800 800 799 798 797 796 796 794 792 791 789 787 785 785 784 783 783 781 780 779 778
771 771 770 770 769 769 768 768 768 768 768 768 769 770 771 773 774 774 775 776 778 781 785 788 791 793 796 798 799 801 802 802 802 802 802 802 801 801 800 799 798 798 797 797 796 795 794 794 794 792 790 788 786 783 782 782 781 780 779 778 777 776 774
769 768 768 767 767 767 766 766 766 766 766 767 767 768 770 772 772 772 774 776 778 781 784 788 791 793 795 797 798 799 800 801 801 801 800 800 799 799 798 796 795 794 793 793 793 792 792 792 791 790 788 786 783 781 780 779 778 777 776 774 773 772 771
766 766 765 765 765 764 764 764 764 764 765 765 766 768 770 771 771 772 774 777 779 782 785 788 791 793 794 796 797 798 799 799 799 799 798 798 797 796 795 794 793 791 790 789 789 788 788 788 788 787 786 783 780 779 778 777 776 774 773 772 770 769 768
763 763 763 763 762 762 762 762 762 763 764 765 767 768 769 770 771 774 776 778 781 784 786 789 791 793 794 795 796 797 797 798 798 797 797 796 795 794 792 792 791 789 788 786 785 785 785 785 784 783 782 780 778 777 776 775 773 772 771 769 768 767 765
761 761 761 760 760 760 759 760 761 762 763 765 766 767 768 770 772 775 777 779 782 785 787 789 791 793 794 795 795 795 796 796 796 795 795 794 792 791 790 789 788 787 785 783 782 782 781 781 780 779 777 775 774 774 774 772 771 770 768 766 765 763 761
758 758 758 758 758 757 757 758 760 760 761 763 765 767 769 771 774 776 779 781 783 785 788 789 791 792 793 794 794 794 794 794 794 793 793 791 790 789 787 786 785 783 781 780 779 778 777 776 775 773 772 771 770 770 770 769 767 765 764 762 760 758 757
755 755 754 755 755 755 756 757 758 759 759 761 764 767 770 773 775 778 781 783 784 786 788 790 791 792 792 793 793 792 792 792 792 790 790 788 787 786 785 783 781 779 778 776 775 774 772 771 770 768 767 767 766 766 765 764 762 761 759 758 756 754 752
Wind_Speed
7 8 8 8 7 7 7 7 7 7 7 6 6 5 5 5 5 6 6 6 6 6 5 5 5 4 4 4 5 4 3 3 2 1 2 1 1 2 2 3 2 2 3 0 1 1 2 2 5 6 5 8 8 6 5 5 5 4 4 5 6 8 8
7 8 9 8 8 8 7 7 7 7 7 6 6 6 6 7 7 8 8 7 7 6 6 6 6 5 5 5 5 5 4 4 4 2 1 1 1 1 1 2 2 2 3 1 1 2 3 2 2 2 0 1 5 6 5 5 6 6 6 7 8 8 9
8 7 8 9 9 8 8 8 7 7 7 7 7 7 8 8 8 8 8 7 7 6 6 7 6 6 6 6 6 6 6 5 5 4 3 2 1 1 1 2 3 3 4 3 2 4 5 5 4 3 3 2 3 5 7 7 9 9 10 11 10 11 12
10 8 8 9 9 9 8 8 7 7 7 7 8 8 8 8 8 7 7 7 7 6 6 6 6 6 6 6 6 6 6 6 5 5 5 4 3 2 2 1 1 1 2 3 3 4 5 5 5 5 6 6 6 7 7 7 8 10 11 13 13 12 12
12 11 10 10 10 10 9 9 8 8 8 8 8 8 8 8 7 7 7 6 6 6 6 6 6 6 6 6 6 6 6 6 6 5 5 4 3 3 3 2 2 2 1 1 2 4 5 5 5 5 6 7 7 7 7 6 8 10 11 12 13 13 12
13 12 11 10 11 10 10 10 9 9 9 9 9 9 9 9 8 7 6 5 6 6 6 6 6 6 6 6 6 6 6 6 6 6 6 5 4 3 3 2 2 2 1 1 1 3 4 5 5 6 7 7 7 8 8 9 10 10 10 11 12 13 13
13 14 12 11 11 11 10 10 10 9 9 10 10 10 10 10 8 7 7 6 6 7 6 6 6 5 5 5 6 6 6 6 6 7 6 6 5 4 3 3 2 2 1 1 1 2 3 4 5 6 6 7 7 9 10 9 9 9 8 9 10 11 11
13 13 13 12 11 11 10 10 11 10 9 9 10 10 11 11 9 9 8 7 7 7 7 6 6 5 5 5 5 6 6 6 6 6 6 6 5 5 4 3 2 2 2 1 1 2 2 3 4 5 6 6 6 7 7 7 8 8 7 7 8 9 10
14 13 13 12 12 12 11 11 11 11 10 9 10 11 12 11 10 10 9 8 8 7 7 6 6 6 5 5 5 5 5 5 6 5 5 5 5 4 4 3 2 2 2 2 2 2 2 2 3 4 5 5 6 5 5 5 5 5 5 5 6 6 7
16 16 14 13 13 13 13 12 11 11 11 10 10 12 13 12 11 11 10 9 9 8 8 7 6 6 6 5 5 5 5 5 5 5 4 4 4 3 3 2 1 1 2 2 2 2 3 3 4 4 5 5 5 5 5 5 5 5 5 5 6 6 6
18 17 16 14 13 13 13 13 12 12 12 12 12 13 14 13 12 12 11 10 10 9 9 8 7 7 6 6 6 5 5 5 4 4 4 3 3 2 2 1 0 0 0 1 2 2 3 4 4 5 5 5 5 6 6 6 6 7 8 7 8 7 8
18 17 17 16 15 14 15 14 14 14 13 14 14 14 15 15 14 13 12 12 11 11 10 9 8 7 6 6 6 6 5 5 5 4 3 3 2 2 2 1 0 0 1 2 3 3 3 4 4 5 6 6 6 7 8 8 7 7 8 8 8 9 10
18 18 17 17 16 15 15 15 15 15 15 15 15 16 16 16 16 15 14 13 13 12 11 11 10 8 7 7 6 6 6 6 6 5 4 3 3 2 2 1 1 1 2 3 4 4 4 5 5 6 6 7 7 7 9 10 9 8 10 10 12 13 13
17 17 17 17 17 16 15 15 15 15 15 16 16 17 17 17 17 16 15 14 14 13 12 12 11 10 9 8 7 7 7 7 6 6 5 5 4 3 2 2 2 2 3 4 5 5 6 6 6 7 7 7 8 8 9 11 11 11 11 11 12 12 12
17 17 17 17 17 16 15 15 15 15 15 15 17 18 18 18 17 17 16 15 14 14 13 13 12 11 10 10 9 8 8 8 7 6 5 5 5 4 3 2 2 2 3 4 5 6 6 6 7 8 8 8 9 9 9 11 12 12 12 12 12 12 12
16 17 17 17 17 16 15 15 15 15 15 14 15 17 18 18 18 17 17 16 16 15 14 13 13 11 11 11 11 10 9 8 8 7 7 6 5 4 3 3 3 3 3 4 5 6 6 7 8 8 9 9 10 11 11 11 13 14 14 14 13 13 12
14 15 15 15 16 16 16 15 14 14 14 14 15 16 17 18 19 19 19 18 17 17 16 15 14 13 12 12 11 10 10 9 9 8 7 6 5 4 3 3 3 3 4 5 5 6 6 6 7 8 9 10 10 11 11 12 13 14 14 14 13 13 13
13 13 12 13 14 15 15 15 15 15 15 15 15 15 16 17 18 19 20 19 19 18 17 17 15 14 13 12 11 11 10 9 9 8 7 6 5 4 4 4 4 4 4 5 5 6 6 7 8 9 10 10 11 11 11 12 13 14 15 16 15 14 13
12 11 12 14 16 15 15 15 15 15 15 16 15 15 16 17 18 19 19 19 20 20 19 18 17 16 14 13 12 11 10 10 9 8 7 6 5 4 4 5 5 5 5 6 6 7 7 8 9 10 11 11 12 12 13 13 14 15 16 17 17 15 14
9 10 12 14 14 14 14 15 15 15 15 15 15 16 19 20 21 22 21 21 20 20 19 18 16 15 14 14 13 13 12 10 9 8 7 6 5 5 5 5 5 6 6 6 7 7 8 9 10 11 12 12 12 12 13 14 15 16 17 17 17 16 15
6 8 10 10 11 11 13 14 14 14 14 16 17 18 20 21 23 24 23 23 22 20 19 18 16 16 15 14 14 13 12 11 10 9 7 6 6 5 5 6 6 7 6 7 8 9 10 11 11 12 12 12 13 13 14 14 14 15 16 17 17 16 16
6 6 6 7 8 10 11 12 12 13 14 16 17 18 19 20 23 24 24 23 22 23 24 23 22 21 18 15 14 13 12 11 9 8 7 6 6 6 6 7 7 8 10 12 13 14 14 15 15 15 14 13 14 14 15 15 15 16 16 16 17 16 16
8 8 7 7 7 8 9 10 12 14 15 16 16 16 17 19 21 22 23 23 22 24 27 28 27 24 19 15 14 12 11 10 9 7 6 6 6 6 7 8 9 11 14 17 17 16 15 16 17 18 18 17 16 15 15 16 16 17 17 17 17 17 16
9 9 9 9 9 9 8 9 11 13 13 14 15 15 16 18 20 22 24 24 23 24 26 26 25 23 22 18 14 11 10 9 8 7 6 5 6 7 8 9 10 11 13 15 15 15 16 17 18 19 19 20 20 20 19 18 18 17 18 19 19 18 18
9 9 10 10 10 10 10 10 11 12 12 13 14 15 16 19 21 22 23 24 23 22 23 24 24 24 24 22 16 11 9 8 7 6 6 5 6 7 8 9 10 11 12 13 15 15 16 18 18 18 19 19 20 22 23 24 23 21 20 20 20 20 20
10 10 9 10 10 10 11 11 12 12 12 12 13 15 17 18 20 22 23 23 22 21 22 25 25 24 23 21 18 12 8 7 6 5 5 6 7 8 9 10 11 12 12 13 15 15 15 15 16 17 18 18 20 22 23 24 25 26 25 24 23 23 21
11 10 10 10 10 11 11 12 13 13 13 13 13 15 16 17 19 21 22 22 20 20 24 26 25 24 21 19 17 12 7 6 5 5 6 7 8 9 10 11 12 13 13 13 13 13 13 13 14 15 15 17 19 20 21 22 23 25 27 28 28 28 25
11 11 11 11 11 12 12 12 13 13 13 13 13 14 16 17 18 20 21 20 18 19 25 27 25 23 20 17 15 10 6 5 5 6 7 8 8 9 10 11 12 13 14 14 14 15 15 14 14 15 15 16 17 18 19 20 21 23 25 27 28 28 27
11 11 12 12 12 12 12 13 13 13 14 14 14 15 16 17 19 19 19 20 20 22 25 26 24 21 18 15 11 8 6 6 6 7 8 9 9 10 11 11 12 13 14 14 15 16 17 16 15 16 17 18 18 18 19 19 21 24 27 28 29 28 28
13 12 12 12 13 13 13 13 14 14 14 14 15 16 17 16 17 19 21 23 25 27 27 25 22 19 16 12 8 6 6 6 6 8 9 9 10 11 11 12 12 13 14 14 14 15 16 15 15 16 18 19 20 20 21 20 21 24 26 29 31 33 34
14 13 13 13 13 13 13 13 13 13 14 15 16 16 17 15 15 20 25 26 28 30 28 23 20 16 13 10 7 5 5 6 7 8 9 10 11 11 12 14 15 15 15 14 15 16 16 16 16 18 20 21 23 23 22 21 22 23 24 25 27 29 32
15 15 15 14 14 13 13 13 13 13 15 16 15 14 15 15 16 21 26 27 28 30 27 22 17 14 11 8 6 4 4 6 7 9 10 11 11 12 13 15 16 17 16 15 15 17 17 17 17 19 21 22 24 24 23 22 23 24 24 24 25 24 25
16 16 16 16 15 15 14 14 14 14 14 14 13 12 14 16 20 24 27 27 27 26 24 20 16 12 9 6 4 3 4 6 8 9 10 11 13 14 15 15 15 15 14 13 14 17 19 20 21 21 22 23 24 24 23 23 24 24 24 25 25 24 25
17 18 18 18 17 17 16 15 15 13 11 11 12 13 16 20 25 25 24 24 24 21 19 17 13 9 7 4 3 3 4 5 7 9 11 13 15 15 15 15 14 14 14 15 17 20 22 24 24 24 24 25 26 26 25 25 26 25 25 26 26 26 26
19 20 20 19 19 19 17 15 13 13 12 13 15 17 21 25 27 25 23 22 21 19 16 14 11 8 5 3 3 5 5 6 8 11 13 15 16 16 16 16 14 15 17 19 21 23 24 27 28 27 27 28 29 30 30 29 28 27 27 26 26 26 26
20 21 21 20 19 19 17 14 13 14 15 17 19 21 24 26 25 23 21 20 18 16 13 10 8 6 4 4 5 6 7 10 12 13 13 15 16 16 16 15 15 17 20 22 24 25 27 28 28 28 28 29 30 30 30 29 28 27 27 26 26 26 25
22 22 22 21 19 17 15 14 14 15 18 22 23 22 20 21 20 18 16 14 13 11 10 8 6 5 4 5 7 8 10 13 14 14 13 13 15 15 16 17 19 22 25 26 26 27 27 27 27 26 26 27 27 28 27 26 26 26 25 25 26 26 26
Wind_Direction
164 150 149 145 142 137 131 129 130 133 135 134 134 129 126 125 119 115 112 108 105 102 98 91 84 79 72 65 63 66 66 56 59 95 85 81 42 49 35 14 13 273 258 300 34 289 283 285 236 238 225 214 240 263 256 259 267 271 272 269 268 262 255
163 152 155 151 148 146 140 137 133 134 137 135 135 131 126 124 120 115 111 106 101 95 94 91 85 82 76 71 69 64 67 71 71 80 92 52 7 11 347 338 334 276 242 184 27 305 274 275 253 241 183 251 274 264 245 251 262 274 274 265 269 268 263
168 164 164 158 157 157 152 149 144 140 139 136 135 133 128 125 121 117 112 105 100 95 95 96 93 89 84 79 78 75 74 75 75 75 75 78 75 25 309 293 284 279 263 238 271 302 283 266 267 278 273 276 278 264 269 277 271 271 268 261 265 263 260
175 176 177 170 169 169 166 164 160 154 148 146 144 140 137 133 126 121 115 108 105 101 100 101 100 97 96 90 86 84 82 81 81 82 79 78 80 68 38 4 347 324 301 281 276 291 289 278 278 279 269 263 262 264 275 281 273 273 269 264 265 263 258
180 183 188 186 180 179 179 176 170 165 161 159 158 155 153 149 140 133 126 116 110 107 105 104 104 104 104 101 96 92 89 90 89 88 87 84 82 72 59 45 41 44 21 324 289 281 287 295 293 283 279 280 276 273 272 269 267 267 262 258 259 258 254
189 190 193 194 192 190 189 185 180 178 175 173 173 171 168 164 159 152 143 131 121 117 113 109 108 110 111 108 107 103 98 97 95 95 92 87 84 81 73 69 59 59 67 43 303 283 288 290 284 278 281 287 288 284 279 271 267 264 255 250 251 251 252
197 196 198 199 199 200 198 193 191 189 186 184 184 182 178 174 171 165 157 146 135 129 124 121 117 116 118 116 114 112 107 104 101 98 94 89 83 77 77 79 75 66 59 36 284 271 280 279 277 284 290 290 284 280 278 272 267 264 256 249 247 250 254
203 202 204 205 202 205 206 201 199 199 197 193 190 186 182 180 178 173 166 156 148 143 135 132 130 126 125 123 121 120 116 114 113 106 98 94 86 78 74 74 76 71 44 10 329 289 282 273 274 284 290 289 281 273 274 276 272 266 263 263 260 257 258
208 207 207 207 204 205 209 208 207 205 203 198 191 186 183 184 183 178 173 167 160 155 149 146 143 139 140 138 133 132 129 127 126 121 115 107 100 91 79 69 76 68 34 3 345 329 317 291 275 271 272 282 291 292 288 286 283 273 268 276 275 265 261
213 213 211 209 206 206 209 213 213 209 205 201 191 185 184 187 187 183 181 176 170 166 162 158 156 152 152 151 148 145 142 142 137 130 127 120 116 114 99 82 86 75 32 3 344 337 327 308 295 280 269 272 282 291 297 294 295 292 289 291 288 283 282
218 219 218 216 213 212 211 212 213 210 206 202 193 187 187 188 189 189 187 183 179 176 172 169 166 164 162 158 156 154 151 152 151 141 134 130 126 127 123 107 96 115 20 340 316 313 313 306 300 290 280 274 268 271 283 290 291 290 289 286 280 280 285
223 223 223 222 219 217 215 213 212 209 205 204 200 194 191 190 191 192 192 190 187 184 181 178 175 174 173 168 166 165 163 165 167 159 152 147 145 148 148 164 273 280 305 302 283 278 289 290 292 291 285 279 270 267 272 277 280 282 283 286 286 288 290
227 227 226 226 224 222 220 217 214 210 207 206 203 199 197 196 195 195 195 194 191 190 189 186 184 184 183 180 180 176 170 173 178 174 174 170 167 175 178 211 259 274 296 297 284 275 275 273 275 280 280 277 273 268 268 271 273 277 281 286 287 288 289
229 230 230 229 229 229 225 221 219 214 210 208 203 201 202 201 199 198 198 197 196 195 194 191 190 190 190 188 185 181 176 179 184 180 180 181 178 179 191 229 256 263 283 293 289 281 276 268 265 267 266 267 268 265 265 270 276 281 283 284 285 286 288
231 232 232 232 234 233 229 225 222 216 212 209 205 203 204 203 202 202 201 200 200 200 199 197 196 195 196 193 187 184 183 185 188 183 182 186 184 184 198 231 256 264 273 281 283 282 280 273 269 268 264 264 268 267 264 268 276 283 286 287 287 286 286
234 232 233 235 237 236 234 230 225 219 217 213 209 207 205 202 202 203 203 204 202 201 201 200 199 200 200 196 191 189 188 189 191 189 190 194 195 197 210 239 264 272 274 279 281 281 281 275 273 274 271 267 268 268 266 267 272 279 284 286 286 286 286
242 238 236 239 240 239 237 233 228 224 222 218 214 211 207 203 202 201 203 205 203 200 200 200 200 203 202 199 197 193 189 191 191 193 197 200 206 216 229 251 269 277 281 285 285 282 281 278 278 279 278 274 269 267 265 263 266 271 278 282 281 282 284
248 244 242 245 244 240 237 235 232 227 224 221 217 211 206 204 205 206 205 204 203 201 200 199 199 201 201 198 198 195 192 192 192 194 199 204 215 230 245 261 273 280 283 284 284 285 284 284 284 281 279 278 276 275 271 267 267 270 274 278 279 279 279
252 248 246 249 248 243 242 239 236 232 227 224 216 204 198 199 204 209 209 207 205 203 200 199 199 198 196 194 194 194 193 192 193 195 198 206 217 231 251 266 272 275 277 279 280 282 284 284 282 279 279 279 278 278 276 273 272 272 272 274 277 278 276
262 255 247 247 247 248 248 244 241 239 234 228 218 203 200 204 207 208 209 209 207 204 201 200 198 195 194 194 193 192 191 191 193 194 197 207 217 231 250 259 263 265 270 274 277 281 285 284 281 278 276 276 275 275 274 272 272 272 273 275 276 277 277
279 265 255 251 250 249 249 246 242 239 233 228 220 210 208 211 211 210 210 208 204 201 199 195 193 194 195 197 195 191 190 190 190 193 200 208 218 231 246 253 260 264 264 266 272 277 278 278 278 278 276 275 273 272 272 272 271 270 271 273 274 275 276
295 281 271 263 255 249 247 245 239 232 228 227 225 222 221 217 213 211 209 207 202 198 193 189 192 197 197 196 196 190 186 188 191 197 204 213 224 236 250 259 262 260 262 271 279 280 275 269 266 267 270 273 273 272 271 270 270 270 270 270 271 272 273
295 293 287 276 264 255 245 235 230 230 232 232 230 230 229 224 218 210 203 202 201 197 193 193 197 200 195 192 192 187 183 186 192 200 209 223 238 248 258 264 266 268 274 284 290 289 282 274 267 262 261 262 264 267 271 270 268 268 269 270 270 271 270
282 281 280 274 268 261 248 229 225 229 232 232 231 227 224 225 224 215 206 202 199 195 196 199 201 199 194 190 185 178 180 185 189 201 214 231 250 261 268 271 275 276 278 283 287 289 287 282 277 272 266 262 258 257 259 263 266 267 268 269 269 269 268
276 274 272 268 264 260 252 239 232 231 230 229 229 226 222 223 224 219 212 206 198 192 196 201 200 196 193 190 183 174 179 185 187 205 222 240 259 271 279 281 282 280 277 275 278 282 282 279 279 277 274 271 265 258 254 254 256 260 263 267 268 266 265
282 278 272 269 264 257 251 246 240 239 236 230 227 228 225 222 221 217 211 203 193 189 195 199 197 192 190 190 187 179 178 184 192 216 234 250 268 276 282 286 285 282 279 276 276 276 274 276 279 280 278 275 269 265 261 257 254 254 256 261 265 265 263
284 281 277 273 266 257 251 246 240 240 239 232 228 229 227 223 219 215 208 196 184 185 194 194 189 187 186 187 188 182 174 183 204 234 245 255 269 274 279 282 282 282 281 278 276 274 274 279 281 280 278 273 267 267 267 264 260 257 254 254 256 259 261
282 278 274 270 266 260 256 249 243 239 238 235 232 231 230 224 218 211 201 187 173 177 186 185 181 183 184 184 186 182 177 192 220 240 248 256 265 269 273 274 275 280 281 278 275 271 273 280 283 280 277 273 270 269 267 263 259 257 254 251 251 255 259
279 274 270 267 265 261 257 252 246 241 238 236 235 234 231 223 215 204 188 177 172 172 175 177 178 180 180 179 179 181 188 211 233 242 251 259 262 265 269 268 271 278 280 279 277 273 273 277 282 282 280 277 275 272 268 266 262 258 257 256 257 259 259
277 271 268 265 263 260 258 254 248 242 239 237 235 234 229 221 211 195 179 176 177 170 165 171 175 173 172 170 167 182 208 229 244 248 256 264 264 265 264 262 269 279 281 280 276 273 274 277 281 283 283 281 280 276 272 271 269 266 265 265 264 262 261
277 273 268 266 264 262 258 255 250 244 240 238 236 232 224 212 198 187 180 179 176 167 161 165 170 167 167 168 165 187 230 250 257 261 268 270 269 270 269 269 272 274 274 274 271 270 273 278 283 285 285 283 281 278 276 275 274 273 272 272 270 266 264
275 273 270 268 267 264 261 257 253 247 243 241 236 226 216 200 181 177 178 173 168 164 160 161 166 168 169 172 168 189 244 265 269 273 280 280 280 280 278 279 278 273 271 273 275 277 279 279 282 284 284 283 280 277 277 277 276 275 274 273 272 270 269
273 271 271 270 268 266 264 260 253 246 242 238 226 209 200 186 168 164 166 162 160 162 160 159 166 170 170 174 182 210 252 275 279 283 287 289 289 287 283 283 280 277 279 282 281 283 284 282 281 282 281 279 276 275 278 277 275 277 277 273 271 271 270
271 270 269 269 268 266 264 259 249 235 224 218 206 194 185 171 157 151 151 151 153 156 157 159 163 166 168 179 218 254 267 278 283 291 295 293 290 288 286 284 282 281 285 288 286 285 283 280 280 279 277 274 271 272 276 277 276 277 276 272 270 269 268
268 268 267 266 265 263 259 250 233 212 200 198 192 179 167 157 149 142 141 143 146 149 153 157 159 161 169 193 244 270 278 280 287 296 297 292 289 288 286 286 286 285 285 286 285 282 279 280 280 278 275 273 271 272 273 274 273 273 271 268 267 265 263
266 264 263 261 261 258 249 234 215 200 192 185 172 158 150 145 141 138 138 140 142 144 146 149 153 162 182 221 258 279 286 289 295 299 294 289 289 288 288 289 289 284 283 284 285 284 284 285 284 280 276 274 274 274 274 271 269 268 266 264 262 260 258
264 262 260 258 255 248 232 213 195 182 177 168 153 141 137 137 135 134 135 137 138 141 145 151 165 184 215 251 275 290 295 299 305 307 297 289 288 288 290 291 289 287 288 291 293 294 293 292 288 284 282 280 278 276 272 268 265 262 260 258 256 255 255